Weather observations for the past three days for
Wilmington, Airborne Airpark Airport
Metric (Imperial)
Date Time (edt) Wind (kph) Vis. (km) Weather Sky Cond. Temperature (ºC) Relative Humidity Wind Chill (°C) Heat Index (°C) Pressure Precipitation (cm)
Air Dwpt 6 hour altimeter (cm) sea level (mb) 1 hr 3 hr 6 hr
Max. Min.
02 16:54 W 17 16.09 Fair CLR 33.9 20.6 46% 37 76.3 1015.6
02 15:54 Vrbl 9 16.09 Fair CLR 32.8 20.6 49% 36 76.33 1016.1
02 14:54 W 15 16.09 Partly Cloudy SCT050 32.8 21.1 50% 36 76.38 1016.6
02 13:54 SW 13 16.09 A Few Clouds FEW042 33.3 21.7 33.3 22.2 51% 37 76.4 1017.1
02 12:54 W 17 16.09 Fair CLR 32.2 21.7 54% 36 76.45 1017.5
02 11:54 SW 17 16.09 Fair CLR 31.1 22.2 59% 35 76.48 1017.9
02 10:54 W 13 3.22 Fair with Haze CLR 30 21.7 61% 33 76.48 1018.1
02 09:54 W 9 16.09 Fair CLR 28.3 21.7 67% 31 76.48 1018.2
02 08:54 SW 9 16.09 Fair CLR 25.6 21.7 79% 27 76.48 1018.2
02 06:54 S 7 16.09 Fair CLR 20.6 20 96% 76.43 1017.5
02 05:54 S 6 16.09 Fair CLR 21.7 20 90% 76.4 1017.2
02 04:54 Calm 16.09 Fair CLR 21.7 20.6 94% 76.4 1016.8
02 03:54 Calm 16.09 Fair CLR 21.7 20 90% 76.35 1016.4
02 02:54 Calm 16.09 Fair CLR 23.3 20.6 85% 76.35 1016.3
02 01:54 Calm 16.09 Fair CLR 23.3 20.6 28.3 22.2 85% 76.35 1016.4
02 00:54 Calm 16.09 Fair CLR 23.3 21.1 88% 76.38 1016.5
01 23:54 Calm 16.09 Fair CLR 24.4 21.1 82% 25 76.38 1016.5
01 22:54 Calm 16.09 Fair CLR 25.6 21.1 76% 27 76.35 1016.4
01 21:54 S 11 16.09 Fair CLR 25 22.2 85% 26 76.35 1016.5
01 20:54 Calm 16.09 Fair CLR 25.6 22.8 85% 27 76.33 1016.4
01 19:54 S 6 16.09 Fair CLR 28.3 23.3 33.3 28.3 74% 32 76.33 1016.5
01 18:54 S 9 16.09 A Few Clouds FEW055 31.1 22.8 61% 35 76.35 1016.5
01 17:54 SW 9 16.09 Fair CLR 32.8 21.7 52% 36 76.35 1016.3
01 16:54 SW 17 16.09 Fair CLR 33.3 20.6 47% 36 76.35 1016.3
01 15:54 SW 17 16.09 Fair CLR 33.3 22.2 52% 38 76.35 1016.3
01 14:54 S 17 16.09 Fair CLR 32.8 21.7 52% 36 76.4 1016.9
01 13:54 W 13 16.09 Fair CLR 32.8 21.1 32.8 21.1 50% 36 76.43 1017.4
01 12:54 W 19 G 30 16.09 Fair CLR 31.7 22.2 57% 36 76.48 1017.9
01 11:54 W 15 16.09 Fair CLR 30.6 22.2 61% 34 76.48 1018.2
01 10:54 W 17 16.09 Fair CLR 29.4 22.2 65% 33 76.48 1018.3
01 09:54 W 19 16.09 Fair CLR 27.2 21.7 72% 29 76.5 1018.4
01 08:54 SW 9 16.09 Mostly Cloudy BKN110 25.6 21.7 79% 27 76.5 1018.7
01 07:54 S 7 16.09 Partly Cloudy SCT110 21.1 20 23.3 21.1 93% 76.48 1018.6
01 06:54 SW 9 16.09 A Few Clouds FEW120 21.7 20 90% 76.43 1017.6
01 05:54 S 6 16.09 Fair CLR 21.7 20 90% 76.4 1017.2
01 04:54 Calm 16.09 Fair CLR 21.7 20 90% 76.38 1016.9
01 03:54 S 6 16.09 Fair CLR 21.1 20 93% 76.38 1016.9
01 02:54 Calm 16.09 Fair CLR 23.3 20.6 85% 76.38 1016.6
01 01:54 SW 9 16.09 Fair CLR 23.3 21.1 27.8 22.2 88% 76.35 1016.4
01 00:54 Calm 16.09 Fair CLR 23.3 21.7 91% 76.38 1016.7
31 23:54 S 6 16.09 Fair CLR 23.3 21.7 91% 76.4 1017.2
31 22:54 Calm 12.87 Fair CLR 23.3 22.8 97% 76.43 1017.5
31 21:54 Calm 16.09 A Few Clouds FEW060 24.4 23.3 94% 24 76.45 1017.8
31 20:54 Calm 16.09 A Few Clouds FEW055 25.6 23.3 87% 27 76.4 1017.6
31 19:54 Calm 16.09 Partly Cloudy SCT055 27.2 23.3 32.2 27.2 79% 30 76.38 1017.0
31 18:54 Calm 16.09 Fair CLR 30 22.2 63% 33 76.33 1016.3
31 17:54 SW 9 16.09 Fair CLR 31.1 21.1 55% 34 76.33 1016.3
31 16:54 SW 11 16.09 A Few Clouds FEW050 31.1 20 52% 33 76.4 1017.2
31 15:54 NW 19 16.09 Fair CLR 32.2 21.1 52% 35 76.45 1018.0
31 14:54 W 17 16.09 Partly Cloudy SCT039 SCT050 31.7 22.2 57% 36 76.5 1018.4
31 13:54 W 17 16.09 Partly Cloudy FEW039 SCT049 31.1 22.2 31.7 22.2 59% 35 76.53 1018.9
31 12:54 W 19 16.09 Fair CLR 30.6 21.7 59% 34 76.56 1019.3
31 11:54 W 19 16.09 Fair CLR 30.6 21.1 57% 33 76.56 1019.3
31 10:54 W 17 16.09 Fair CLR 28.9 21.1 63% 31 76.53 1018.9
31 09:54 SW 13 0.00 Fair CLR 26.7 21.1 71% 28 76.53 1019.0
31 08:54 SW 9 16.09 Fair CLR 23.3 20.6 85% 76.53 1019.2
31 07:54 SW 6 16.09 Fair CLR 22.2 20 22.2 19.4 87% 76.5 1018.9
31 06:54 S 6 16.09 Fair CLR 21.7 19.4 87% 76.48 1018.2
31 05:54 Calm 16.09 Fair CLR 21.1 19.4 90% 76.45 1018.0
31 04:54 Calm 16.09 Fair CLR 22.2 19.4 84% 76.43 1017.8
31 03:54 S 6 16.09 Fair CLR 21.1 19.4 90% 76.43 1017.6
31 02:54 S 6 12.87 Fair CLR 20 18.9 93% 76.45 1018.0
31 01:54 Calm 16.09 Fair CLR 21.1 19.4 25 20 90% 76.48 1018.2
31 00:54 Calm 16.09 Fair CLR 20.6 19.4 93% 76.48 1018.2
30 23:54 Calm 16.09 Fair CLR 21.1 20 93% 76.48 1018.4
30 22:54 SE 6 16.09 Fair CLR 22.8 20 84% 76.5 1018.6
30 20:54 N 6 16.09 Fair CLR 23.9 20 79% 24 76.45 1018.3
30 19:54 Calm 16.09 Fair CLR 25 20.6 31.1 25 77% 26 76.43 1018.0
30 18:54 SW 9 16.09 Fair CLR 28.3 20 61% 30 76.38 1017.3
Date Time (edt) Wind (kph) Vis. (km) Weather Sky Cond. Air Dwpt Max. Min. Relative Humidity Wind Chill (°C) Heat Index (°C) altimeter (cm) sea level (mb) 1 hr 3 hr 6 hr
6 hour
Temperature (ºC) Pressure Precipitation (cm)